Overview Statistics Trail Chart Weather Telemetry Raw packets
 

This is the latest recevied weather packets stored in our database for station/object KL7AF. If no packets are shown the sender has not sent any weather packets the latest 10 day(s).

<< 6 7 8 9 10 11 12 >>
Time Temp. Humidity Pressure Rain* Wind** Luminosity Snow
1788568650 27.78° C 80% 1016.1 hPa 0 mm - 0 W/m² -
1788568350 27.78° C 80% 1016.1 hPa 0 mm - 0 W/m² -
1788568049 27.78° C 79% 1016 hPa 0 mm - 0 W/m² -
1788567749 28.33° C 79% 1016 hPa 0 mm - 0 W/m² -
1788567449 28.33° C 78% 1016 hPa 0 mm - 0 W/m² -
1788567148 28.33° C 77% 1016.1 hPa 0 mm - 1 W/m² -
1788566848 28.33° C 77% 1076.9 hPa 0 mm - 1 W/m² -
1788566548 28.33° C 77% 1016 hPa 0 mm - 2 W/m² -
1788566248 28.33° C 76% 1016.1 hPa 0 mm - 2 W/m² -
1788565947 28.89° C 76% 1016.1 hPa 0 mm - 4 W/m² -
1788565674 28.89° C 76% 1016.1 hPa 0 mm - 5 W/m² -
1788565345 28.89° C 76% 1016.2 hPa 0 mm - 6 W/m² -
1788565044 28.89° C 75% 1016.2 hPa 0 mm - 8 W/m² -
1788564744 28.89° C 74% 1016.2 hPa 0 mm - 8 W/m² -
1788564443 29.44° C 73% 1016.2 hPa 0 mm - 10 W/m² -
1788564142 29.44° C 73% 1016.2 hPa 0 mm - 10 W/m² -
1788563841 29.44° C 72% 1016.1 hPa 0 mm - 11 W/m² -
1788563541 30° C 72% 1016.1 hPa 0 mm - 12 W/m² -
1788563240 30° C 71% 1016.2 hPa 0 mm - 13 W/m² -
1788562939 30° C 70% 1016.4 hPa 0 mm - 16 W/m² -
1788562639 30.56° C 70% 1016.3 hPa 0 mm - 18 W/m² -
1788562338 31.11° C 69% 1016.1 hPa 0 mm - 21 W/m² -
1788562037 31.11° C 67% 1016 hPa 0 mm - 25 W/m² -
1788561737 31.67° C 66% 1075.7 hPa 0 mm - 29 W/m² -
1788561437 32.22° C 66% 1075.7 hPa 0 mm - 34 W/m² -

* Rain latest hour (hover to see other rain measurements)
** Current wind speed in m/s (hover to see current wind gust speed)